Theta_e
304 304 304 304 303 305 302 294 288 304 306 290 288 286 288 294 291 293 291 290 287 285 286 284 285 285 287 292 291 288 291 287 282 283 288 290 289 286 286 279 277 282 280 280
303 303 303 303 303 305 299 289 292 305 301 283 285 291 289 293 291 290 289 288 290 290 287 284 288 290 293 293 290 287 290 286 277 277 285 288 286 288 288 287 286 280 277 280
303 303 303 303 303 304 300 290 286 291 296 294 289 288 288 288 294 292 291 290 291 288 287 290 287 288 293 294 292 295 294 286 279 276 279 286 283 286 288 286 281 282 282 284
303 303 303 303 302 304 300 294 289 291 285 289 290 292 289 287 287 292 291 289 289 287 284 287 287 290 290 293 294 294 291 284 285 286 287 288 287 287 288 284 285 282 285 285
303 303 302 302 303 304 295 289 291 293 290 292 290 291 289 288 289 289 287 287 290 290 286 287 286 289 289 288 290 291 291 285 286 284 288 288 286 288 289 289 289 287 287 287
302 302 302 302 302 303 294 295 296 294 292 291 290 289 288 289 291 291 292 291 289 288 291 293 294 296 295 293 290 286 288 286 284 281 288 288 284 289 291 291 291 289 286 290
302 302 302 302 302 303 299 297 295 290 288 290 290 291 292 291 291 290 294 294 291 296 300 298 296 296 295 294 293 293 289 286 287 284 286 280 292 296 296 295 296 292 292 293
301 302 302 302 301 303 300 299 296 294 290 293 292 291 292 294 295 293 294 297 299 301 296 289 286 286 287 289 291 291 292 288 286 283 283 287 290 292 294 294 293 294 294 294
300 301 302 301 301 303 300 298 302 297 292 291 295 292 294 291 291 293 294 299 302 300 292 287 281 277 281 282 285 289 289 290 288 285 281 279 289 292 294 296 289 297 295 295
301 301 301 300 301 303 301 298 302 297 292 294 295 292 292 296 295 292 293 294 294 298 289 286 283 282 284 282 283 285 285 287 284 286 284 285 291 294 294 285 288 294 295 295
301 301 300 300 301 303 301 297 302 299 297 295 298 298 295 297 296 291 293 292 292 291 286 286 284 282 284 284 286 285 284 284 284 285 283 279 291 292 288 292 294 294 295 295
299 299 300 301 302 303 303 295 301 303 299 295 301 301 302 301 301 297 295 293 293 293 290 286 287 284 285 286 282 287 284 287 284 284 285 291 292 293 295 295 294 293 293 294
298 299 301 302 302 303 302 297 299 300 300 295 296 296 302 305 305 306 295 296 299 297 294 291 289 287 287 283 283 284 287 290 288 288 291 292 294 294 294 294 293 293 292 291
300 300 300 300 301 302 302 297 299 297 297 290 293 303 301 306 306 306 305 302 302 301 298 293 290 288 290 286 286 286 288 290 289 288 292 292 294 293 294 293 292 290 290 289
299 298 299 300 301 302 301 299 299 300 297 295 296 301 303 304 305 303 303 301 299 298 297 295 289 291 290 290 290 285 290 290 288 288 293 293 293 293 294 293 291 290 289 287
299 299 299 300 301 302 298 294 302 302 304 298 290 300 300 301 303 301 301 301 300 300 297 296 296 295 293 291 289 292 292 293 295 294 294 293 293 294 295 292 292 291 289 287
299 300 300 301 302 299 293 295 299 302 302 298 290 291 298 300 299 299 299 300 299 299 298 296 293 293 295 291 285 294 294 294 294 293 294 292 293 293 293 292 291 290 288 287
301 301 301 302 302 300 296 300 303 303 301 299 287 289 293 299 296 295 299 297 298 298 296 296 295 293 292 289 293 292 292 291 291 292 293 293 292 292 290 290 289 287 285 285
303 303 302 300 297 294 298 306 306 306 301 291 289 287 286 297 295 296 295 296 292 296 293 294 294 292 288 291 292 292 292 291 292 291 292 292 291 290 289 289 288 286 285 285
303 299 295 291 297 304 305 303 298 295 296 295 290 293 289 293 292 291 291 291 289 285 291 292 290 290 292 292 292 292 292 291 291 290 286 288 288 289 289 289 289 288 286 285
297 294 292 299 305 301 296 290 291 292 288 292 292 291 291 292 289 289 290 286 286 284 286 287 286 284 286 288 290 291 291 291 291 291 292 292 292 290 288 286 286 286 285 283
295 295 297 298 294 290 288 287 287 287 286 291 291 292 293 291 293 286 287 286 286 281 284 285 282 285 287 287 287 288 289 290 289 289 290 290 290 289 288 286 285 284 283 282
298 293 289 290 287 285 285 283 285 285 287 288 288 288 291 291 291 287 286 284 283 285 283 282 282 284 285 285 286 286 287 289 288 288 288 288 288 288 287 284 284 284 283 282
288 285 285 285 284 286 285 282 280 282 286 287 289 287 288 288 287 286 284 284 283 280 277 275 280 281 283 284 284 286 285 286 286 286 287 286 286 285 285 284 284 283 281 281
285 285 281 284 284 285 285 285 286 286 289 288 287 286 287 285 285 283 282 280 278 279 277 278 278 280 282 283 284 284 284 284 284 285 285 284 284 284 283 284 284 283 281 280
285 280 278 281 282 284 284 285 285 288 289 287 287 284 283 282 279 276 278 274 275 279 278 276 272 280 281 282 283 283 283 283 283 283 283 283 283 282 280 281 280 280 279 278
282 279 283 279 281 282 283 285 286 291 287 285 285 281 279 278 276 274 276 278 282 276 274 274 276 277 280 281 282 282 282 282 282 282 281 280 280 280 279 277 276 277 277 276
Wind_Speed
25 24 24 25 26 28 7 4 3 4 9 6 4 3 5 2 2 3 4 5 6 6 7 5 5 6 3 5 7 9 8 2 5 9 7 12 7 10 12 6 6 6 9 26
23 23 23 24 25 28 6 5 4 7 4 5 8 4 2 2 2 1 3 4 3 3 6 7 5 4 5 8 7 9 9 4 2 8 3 3 6 10 16 14 10 17 13 18
22 22 22 24 25 27 9 2 1 4 1 2 6 5 4 3 5 2 6 6 5 5 3 1 5 3 3 9 8 11 12 5 6 6 4 4 6 10 15 19 11 16 27 34
22 21 21 23 25 28 7 2 2 1 4 3 6 3 6 6 4 2 4 4 4 6 5 4 5 7 1 3 6 7 9 5 8 14 15 15 18 20 22 19 25 16 28 20
20 20 20 22 23 26 1 4 4 1 3 9 7 4 6 7 2 5 3 5 8 5 6 6 5 6 7 4 2 9 7 3 2 11 14 17 21 23 20 20 20 21 24 28
19 20 19 21 22 19 2 2 4 4 9 6 5 5 7 7 7 4 4 7 5 7 8 5 3 2 1 2 3 6 6 3 2 7 7 13 9 8 8 4 6 6 11 10
17 18 19 20 21 19 2 2 4 4 3 6 5 8 4 5 5 4 1 5 6 2 7 6 2 6 8 9 7 4 4 4 2 6 7 4 2 4 9 11 10 13 8 11
17 17 18 18 20 21 3 3 3 4 2 5 9 10 8 4 5 5 4 4 5 10 5 3 3 2 3 7 10 9 8 1 3 3 3 8 7 5 3 4 4 5 5 3
16 16 16 18 18 20 7 5 2 3 1 5 6 5 6 4 5 3 5 3 7 8 3 3 5 5 5 4 2 7 6 8 4 1 3 4 4 2 1 3 6 2 3 4
15 16 16 18 17 20 9 4 2 4 1 1 4 4 6 4 3 1 3 4 2 6 5 4 4 4 5 5 7 7 5 4 9 4 4 8 7 4 1 1 3 5 8 2
16 16 17 16 17 19 9 6 4 4 2 3 2 2 4 3 3 3 3 2 3 4 4 4 4 3 6 3 5 7 7 7 4 4 4 8 1 2 3 3 4 3 5 4
18 17 16 17 17 17 13 3 5 4 3 3 2 2 1 2 6 4 4 1 1 5 4 2 3 2 3 4 4 1 4 7 6 9 8 6 3 5 4 2 4 3 3 1
17 17 17 18 17 16 11 3 4 3 1 3 2 3 0 2 2 2 4 3 3 3 3 2 2 2 4 4 5 3 4 4 2 1 4 7 7 4 3 2 1 1 2 4
16 16 17 17 17 16 13 2 2 3 4 1 3 1 1 1 2 3 2 2 1 2 2 2 2 2 3 3 2 3 4 5 5 5 9 6 6 5 2 4 5 5 6 4
17 16 17 17 17 18 9 5 5 6 3 2 1 1 0 0 3 2 1 2 3 2 2 2 3 2 3 1 1 4 6 8 5 6 5 2 4 2 4 5 4 6 7 9
17 16 17 17 15 14 3 3 2 5 3 2 2 1 2 1 1 2 3 2 2 2 2 1 2 1 2 1 3 6 6 4 5 3 2 3 3 4 2 5 5 7 10 9
20 20 16 14 16 3 4 3 1 8 5 2 2 2 2 3 2 1 2 2 2 1 1 2 2 1 3 2 4 5 5 7 5 2 4 2 4 3 5 10 11 11 13 10
22 20 17 15 8 5 5 4 11 4 2 0 0 2 2 3 1 1 1 1 1 2 1 1 2 2 2 5 9 5 1 2 2 5 1 2 8 8 8 9 11 11 12 11
14 8 5 2 2 2 3 3 8 1 1 1 1 1 2 2 1 0 0 1 2 1 2 1 1 3 6 8 5 4 6 6 4 4 5 7 7 10 9 10 9 13 9 10
9 3 2 2 4 5 5 1 2 1 1 1 3 1 1 0 1 0 1 2 1 1 1 2 3 5 6 1 1 2 4 3 7 6 3 5 5 9 10 6 8 9 11 11
3 1 1 2 1 2 3 1 2 1 2 2 2 3 2 1 1 1 1 1 0 0 2 1 3 5 3 5 3 3 2 6 5 1 1 6 10 12 11 10 9 10 11 12
3 3 4 2 3 2 2 1 1 2 3 1 1 1 1 0 1 3 1 1 1 3 2 1 4 4 2 3 3 3 1 5 3 3 7 8 11 11 12 12 12 10 12 13
1 3 3 1 1 3 4 5 3 2 2 1 0 0 1 1 2 3 1 1 2 1 1 4 6 3 3 3 2 3 4 5 6 6 7 11 11 11 13 14 11 14 13 10
3 2 1 0 2 2 1 0 1 1 1 3 0 1 1 1 2 1 2 1 1 1 2 7 3 3 2 2 2 2 3 5 7 8 10 12 13 12 11 12 13 15 14 11
2 1 2 0 2 0 0 0 1 2 2 1 1 2 1 1 2 2 2 1 3 5 6 4 3 2 1 1 1 3 4 4 5 6 9 12 13 13 12 10 11 12 14 13
2 4 2 1 1 2 2 2 2 1 1 0 1 2 1 2 3 2 6 4 6 5 4 3 1 2 0 0 2 3 4 5 6 6 8 10 11 13 13 11 10 10 12 14
2 2 1 0 1 1 1 1 2 3 1 2 1 4 8 3 2 3 5 7 4 3 3 2 3 2 2 3 4 5 5 6 6 7 8 10 11 12 13 14 7 10 10 12
Wind_Direction
329 334 332 334 336 332 336 288 261 155 135 143 82 143 161 139 158 69 100 98 95 131 143 151 205 204 232 177 144 175 189 207 232 225 212 188 179 200 208 221 233 227 268 269
332 336 334 337 338 333 334 311 291 128 140 122 150 150 76 74 115 80 116 97 94 130 139 140 223 176 178 153 157 166 162 210 331 327 70 72 212 219 222 232 259 239 253 264
333 338 336 337 337 335 324 262 326 24 63 20 115 129 153 115 18 46 77 106 79 100 95 183 156 208 163 195 187 184 180 196 189 200 206 149 200 226 231 227 242 253 237 270
337 341 339 338 339 341 328 258 71 68 140 176 151 96 144 124 148 61 82 67 143 148 136 183 206 192 254 219 214 198 173 247 236 258 265 266 266 263 253 228 233 235 276 277
343 342 341 341 341 339 16 328 339 136 125 148 168 124 167 138 190 144 180 125 178 172 154 173 181 174 190 217 99 176 175 244 289 283 268 260 267 264 267 260 245 244 256 274
345 343 340 346 342 349 332 263 229 245 155 131 139 176 164 182 136 223 170 172 140 193 218 187 193 229 10 116 190 180 170 210 250 265 307 293 267 276 268 258 225 225 220 241
339 343 339 349 342 345 321 302 285 300 160 157 172 168 111 135 175 126 185 141 156 84 80 68 67 229 221 235 262 234 201 184 229 288 318 276 273 153 282 289 276 207 255 267
335 344 339 345 338 334 325 296 258 276 104 168 177 156 160 146 219 240 247 208 138 124 88 144 158 177 190 224 232 219 209 256 277 270 258 284 286 173 242 325 303 191 249 288
333 340 340 341 336 338 341 305 273 285 125 199 129 132 161 170 205 196 242 66 148 149 130 180 196 185 194 192 237 196 178 216 245 329 312 283 253 171 99 128 317 138 203 1
341 336 336 340 334 341 344 279 235 285 309 261 135 160 177 150 155 223 115 131 210 163 177 180 184 214 176 169 177 157 155 180 222 240 262 283 253 279 358 189 236 319 316 17
336 334 337 335 337 341 351 290 308 318 329 303 14 112 125 117 176 173 129 149 190 166 197 181 194 169 212 179 174 174 163 166 186 194 225 270 212 349 149 242 299 268 287 304
334 331 325 328 335 332 349 302 330 314 253 269 324 292 326 232 176 139 164 201 251 162 197 233 137 163 172 167 209 110 187 186 181 186 214 241 234 217 250 207 239 281 269 253
323 320 325 333 328 327 340 306 321 303 293 315 1 259 202 61 135 128 150 200 234 200 163 198 205 166 136 176 232 186 231 178 201 0 263 251 273 267 204 27 59 329 359 103
318 326 324 327 331 327 324 277 289 269 269 223 282 258 231 337 167 173 182 129 262 296 147 217 195 175 180 206 226 190 204 132 195 267 281 275 272 242 129 93 88 73 49 71
315 317 316 312 315 316 306 255 231 214 277 320 284 218 128 224 157 161 173 182 199 241 185 211 226 172 130 167 72 252 187 188 169 222 235 153 282 26 118 118 111 101 103 87
308 303 305 304 306 318 336 305 129 202 227 297 327 274 233 136 185 209 226 205 225 242 217 256 233 217 137 191 242 251 211 213 191 218 130 118 102 87 89 102 94 94 91 101
304 299 298 295 296 268 222 271 312 315 317 265 314 302 289 148 164 216 224 183 256 274 269 227 177 259 162 253 228 250 205 214 237 209 123 116 183 183 119 108 100 95 90 86
294 285 281 283 272 286 269 244 245 185 243 303 0 282 330 168 244 230 336 179 196 168 286 252 208 131 161 254 246 280 274 94 135 171 74 80 107 96 101 113 114 110 105 109
292 246 198 131 167 218 240 242 138 140 219 210 141 214 263 10 275 11 346 326 197 83 246 224 260 171 220 227 239 246 205 198 180 103 106 112 123 132 130 127 122 119 121 119
82 69 175 174 208 231 169 143 131 43 337 64 230 189 213 183 336 358 358 5 68 316 314 324 231 255 258 317 19 343 330 161 135 108 93 128 142 150 146 141 132 128 126 121
10 314 357 301 97 118 29 67 122 113 296 223 242 211 158 233 194 196 17 180 9 242 293 284 266 270 266 352 338 0 318 174 193 293 197 160 149 148 134 114 110 116 120 119
286 297 285 289 52 65 105 111 8 204 241 297 230 206 99 66 329 99 2 112 47 243 330 274 261 258 294 331 345 338 95 144 79 46 112 110 120 127 124 124 118 110 114 118
350 13 356 40 344 120 182 177 219 231 346 286 257 59 97 125 52 61 56 212 231 24 265 243 237 269 292 306 331 39 39 92 99 90 89 100 102 109 121 118 117 120 114 116
65 8 310 154 159 243 199 350 137 273 258 284 160 75 75 16 66 43 249 21 349 273 256 241 256 265 288 334 332 134 133 125 119 116 114 114 115 111 114 121 129 126 123 124
99 105 231 73 14 246 335 240 264 241 249 239 84 59 117 51 95 20 72 337 255 216 233 236 259 289 266 310 58 128 122 111 104 118 125 125 125 122 115 119 122 122 123 118
73 28 58 318 72 6 1 11 290 265 255 350 46 136 97 210 138 108 218 139 229 250 225 243 266 248 312 74 99 109 117 112 107 106 115 117 120 121 112 101 102 109 116 120
79 58 22 22 193 230 291 325 303 324 297 237 140 174 215 76 68 264 197 211 227 232 274 252 226 225 191 151 128 124 116 109 106 107 102 104 111 115 113 108 91 96 101 101